GW4608 Weather Reports


Display with metric or nautical units.
time (UTC)temp
F
wind
direction
speed
MPH
gust
MPH
rain 1hr
in
rain 24hr
in
rain mn
in
humidity
%
barometer
mb
20260505085702 55 157 2.0 2.0 0.00 0.00 0.00 77 1011.6
20260505085200 55 173 1.0 3.0 0.00 0.00 0.00 77 1011.6
20260505084657 55 190 1.0 2.0 0.00 0.00 0.00 77 1011.7
20260505084156 55 189 1.0 3.0 0.00 0.00 0.00 77 1011.6
20260505083653 55 209 3.0 3.0 0.00 0.00 0.00 78 1011.7
20260505083149 54 200 2.0 2.0 0.00 0.00 0.00 79 1011.7
20260505082645 54 207 1.0 2.0 0.00 0.00 0.00 81 1011.5
20260505082142 55 208 0.0 1.0 0.00 0.00 0.00 79 1011.3
20260505081638 56 207 1.0 2.0 0.00 0.00 0.00 77 1011.5
20260505081136 56 198 1.0 2.0 0.00 0.00 0.00 77 1011.4
20260505080632 56 210 2.0 2.0 0.00 0.00 0.00 79 1011.5
20260505080128 56 189 1.0 2.0 0.00 0.00 0.00 78 1011.3
20260505075625 57 188 1.0 2.0 0.00 0.00 0.00 77 1011.3
20260505075122 59 161 2.0 3.0 0.00 0.00 0.00 75 1011.2
20260505074619 59 240 5.0 7.0 0.00 0.00 0.00 67 1011.2
20260505074116 58 197 2.0 2.0 0.00 0.00 0.00 73 1011.3
20260505073613 58 242 2.0 4.0 0.00 0.00 0.00 72 1011.2
20260505073112 59 199 5.0 6.0 0.00 0.00 0.00 70 1011.4
20260505072607 57 236 4.0 7.0 0.00 0.00 0.00 71 1011.3
20260505072103 56 262 0.0 1.0 0.00 0.00 0.00 76 1011.3
20260505071559 56 195 1.0 2.0 0.00 0.00 0.00 77 1011.3
20260505071057 55 255 1.0 2.0 0.00 0.00 0.00 77 1011.1
20260505070554 55 160 1.0 2.0 0.00 0.00 0.00 76 1011.3
20260505070050 55 163 2.0 2.0 0.00 0.00 0.00 76 1011.1
20260505065546 55 181 1.0 2.0 0.00 0.00 0.00 77 1011.0
20260505065043 55 189 2.0 2.0 0.00 0.00 0.00 77 1011.0
20260505064540 54 198 1.0 1.0 0.00 0.00 0.00 78 1011.2
20260505064038 54 199 1.0 1.0 0.00 0.00 0.00 78 1011.2
20260505063535 53 200 1.0 1.0 0.00 0.00 0.00 81 1011.2
20260505063031 52 224 0.0 0.0 0.00 0.00 0.00 82 1011.3
20260505062528 52 235 0.0 0.0 0.00 0.00 0.00 82 1011.0
20260505062025 52 263 0.0 0.0 0.00 0.00 0.00 82 1011.1
20260505061523 53 262 1.0 1.0 0.00 0.00 0.00 81 1011.1
20260505061020 52 225 0.0 1.0 0.00 0.00 0.00 82 1011.3
20260505060518 53 224 0.0 1.0 0.00 0.00 0.00 81 1011.1
20260505060014 53 224 0.0 1.0 0.00 0.00 0.00 79 1011.2
20260505055509 53 209 1.0 1.0 0.00 0.00 0.00 79 1011.2
20260505055006 53 201 1.0 1.0 0.00 0.00 0.00 80 1011.3
20260505054504 53 204 1.0 1.0 0.00 0.00 0.00 80 1011.4
20260505054001 53 217 0.0 1.0 0.00 0.00 0.00 79 1011.4
20260505053458 54 218 1.0 1.0 0.00 0.00 0.00 79 1011.4
20260505052955 52 197 1.0 2.0 0.00 0.00 0.00 80 1011.2
20260505052452 52 289 0.0 0.0 0.00 0.00 0.00 82 1011.3
20260505051949 53 290 0.0 0.0 0.00 0.00 0.00 80 1011.4
20260505051446 54 179 0.0 0.0 0.00 0.00 0.00 78 1011.3
20260505050944 54 179 0.0 0.0 0.00 0.00 0.00 78 1011.2
20260505050442 54 179 0.0 1.0 0.00 0.00 0.00 79 1011.2
20260505041410 53 248 2.0 2.0 0.00 0.00 0.00 79 1011.3
20260505040907 54 224 0.0 1.0 0.00 0.00 0.00 78 1011.1
20260505040405 54 255 0.0 1.0 0.00 0.00 0.00 77 1011.3
20260505035901 55 248 1.0 2.0 0.00 0.00 0.00 77 1011.3
20260505035357 55 239 1.0 2.0 0.00 0.00 0.00 75 1011.2
20260505034855 55 249 1.0 2.0 0.00 0.00 0.00 74 1011.1
20260505034351 54 261 2.0 2.0 0.00 0.00 0.00 78 1011.4
20260505033848 55 244 0.0 1.0 0.00 0.00 0.00 77 1011.4
20260505033345 55 256 2.0 2.0 0.00 0.00 0.00 75 1011.3
20260505032843 55 261 1.0 2.0 0.00 0.00 0.00 75 1011.4
20260505032339 56 257 1.0 2.0 0.00 0.00 0.00 74 1011.3
20260505031836 57 276 1.0 2.0 0.00 0.00 0.00 70 1011.4
20260505031333 56 258 1.0 2.0 0.00 0.00 0.00 72 1011.3
20260505030830 56 250 2.0 2.0 0.00 0.00 0.00 75 1011.5
20260505030326 57 267 2.0 2.0 0.00 0.00 0.00 72 1011.3
20260505025822 56 203 1.0 2.0 0.00 0.00 0.00 74 1011.4
20260505025320 57 261 2.0 3.0 0.00 0.00 0.00 71 1011.5
20260505024818 57 255 1.0 2.0 0.00 0.00 0.00 72 1011.5
20260505024315 57 239 1.0 2.0 0.00 0.00 0.00 72 1011.5
20260505023812 57 211 1.0 2.0 0.00 0.00 0.00 70 1011.3
20260505023309 56 217 2.0 3.0 0.00 0.00 0.00 73 1011.7
20260505022806 57 257 2.0 2.0 0.00 0.00 0.00 72 1011.5
20260505022304 58 282 2.0 2.0 0.00 0.00 0.00 69 1011.5
20260505021800 58 258 2.0 2.0 0.00 0.00 0.00 68 1011.7
20260505021257 59 255 2.0 2.0 0.00 0.00 0.00 68 1011.7
20260505020753 59 263 1.0 3.0 0.00 0.00 0.00 65 1011.7
20260505020248 60 250 2.0 2.0 0.00 0.00 0.00 65 1011.5
20260505015746 61 265 2.0 2.0 0.00 0.00 0.00 63 1011.5
20260505015242 60 264 2.0 3.0 0.00 0.00 0.00 65 1011.5
20260505014739 60 264 2.0 2.0 0.00 0.00 0.00 63 1011.6
20260505014237 61 252 1.0 2.0 0.00 0.00 0.00 62 1011.3
20260505013733 62 260 2.0 2.0 0.00 0.00 0.00 59 1011.4
20260505013231 62 251 1.0 2.0 0.00 0.00 0.00 60 1011.3
20260505012729 62 260 2.0 3.0 0.00 0.00 0.00 61 1011.2
20260505012226 62 252 1.0 3.0 0.00 0.00 0.00 59 1011.1
20260505011721 63 273 0.0 1.0 0.00 0.00 0.00 59 1011.1
20260505011219 65 264 1.0 1.0 0.00 0.00 0.00 55 1011.0
20260505010714 64 289 2.0 3.0 0.00 0.00 0.00 54 1010.9
20260505010211 65 244 1.0 2.0 0.00 0.00 0.00 55 1010.8
20260505005707 64 256 1.0 2.0 0.00 0.00 0.00 54 1010.8
20260505005205 63 258 2.0 6.0 0.00 0.00 0.00 54 1010.7
20260505004702 64 263 2.0 2.0 0.00 0.00 0.00 55 1010.7
20260505004158 65 261 2.0 2.0 0.00 0.00 0.00 52 1010.7
20260505003655 65 265 1.0 2.0 0.00 0.00 0.00 54 1010.7
20260505003153 66 278 2.0 2.0 0.00 0.00 0.00 52 1010.6
20260505002649 67 277 1.0 2.0 0.00 0.00 0.00 50 1010.5
20260505002147 67 260 2.0 2.0 0.00 0.00 0.00 50 1010.4
20260505001644 69 260 2.0 2.0 0.00 0.00 0.00 48 1010.4
20260505001141 71 252 1.0 2.0 0.00 0.00 0.00 45 1010.5
20260505000638 71 251 1.0 1.0 0.00 0.00 0.00 44 1010.2
20260505000136 72 262 4.0 6.0 0.00 0.00 0.00 42 1010.2
20260504235632 72 267 3.0 4.0 0.00 0.00 0.00 42 1010.1
20260504235129 72 191 4.0 8.0 0.00 0.00 0.00 41 1010.1
20260504234626 72 233 6.0 9.0 0.00 0.00 0.00 41 1010.0
20260504234123 72 229 6.0 11.0 0.00 0.00 0.00 41 1010.1
20260504233619 72 225 3.0 7.0 0.00 0.00 0.00 41 1010.1
20260504233115 72 257 3.0 3.0 0.00 0.00 0.00 42 1010.1
20260504232613 72 248 3.0 6.0 0.00 0.00 0.00 41 1009.9
20260504232110 73 282 3.0 6.0 0.00 0.00 0.00 41 1010.0
20260504231606 74 279 1.0 6.0 0.00 0.00 0.00 41 1010.1
20260504231102 73 250 6.0 8.0 0.00 0.00 0.00 40 1010.0
20260504230558 74 224 4.0 6.0 0.00 0.00 0.00 42 1009.9
20260504230058 74 269 4.0 7.0 0.00 0.00 0.00 41 1009.8
20260504225555 74 348 1.0 3.0 0.00 0.00 0.00 42 1010.0
20260504225052 73 246 4.0 7.0 0.00 0.00 0.00 40 1009.8
20260504224548 74 200 2.0 4.0 0.00 0.00 0.00 41 1009.8
20260504224046 75 225 3.0 7.0 0.00 0.00 0.00 40 1009.9
20260504223542 75 232 5.0 10.0 0.00 0.00 0.00 38 1009.7
20260504223038 76 265 7.0 9.0 0.00 0.00 0.00 37 1010.0
20260504222535 76 175 3.0 10.0 0.00 0.00 0.00 40 1009.7
20260504222032 76 294 4.0 7.0 0.00 0.00 0.00 39 1009.9
20260504221530 74 306 6.0 8.0 0.00 0.00 0.00 39 1010.0
20260504221026 75 280 3.0 4.0 0.00 0.00 0.00 39 1009.9
20260504220523 75 246 3.0 4.0 0.00 0.00 0.00 39 1009.9
20260504220020 75 283 6.0 7.0 0.00 0.00 0.00 40 1009.6
20260504215516 75 269 3.0 6.0 0.00 0.00 0.00 39 1009.5
20260504215014 75 256 6.0 8.0 0.00 0.00 0.00 38 1009.7
20260504214510 75 228 2.0 7.0 0.00 0.00 0.00 39 1009.7
20260504214006 75 300 7.0 11.0 0.00 0.00 0.00 37 1009.6
20260504213502 75 240 5.0 7.0 0.00 0.00 0.00 39 1009.4
20260504213000 76 245 9.0 13.0 0.00 0.00 0.00 35 1009.6
20260504212455 77 261 7.0 9.0 0.00 0.00 0.00 38 1009.4
20260504211953 78 312 7.0 13.0 0.00 0.00 0.00 36 1009.5
20260504211449 76 285 4.0 10.0 0.00 0.00 0.00 37 1009.2
20260504210947 76 334 6.0 14.0 0.00 0.00 0.00 38 1009.4
20260504210444 78 201 5.0 9.0 0.00 0.00 0.00 36 1009.3
20260504205941 77 173 6.0 9.0 0.00 0.00 0.00 37 1009.4
20260504205438 76 284 5.0 10.0 0.00 0.00 0.00 36 1009.2
20260504204936 77 248 4.0 10.0 0.00 0.00 0.00 36 1009.3
20260504204434 78 290 4.0 10.0 0.00 0.00 0.00 37 1009.4
20260504203933 77 201 2.0 4.0 0.00 0.00 0.00 40 1009.3
20260504203431 76 219 3.0 9.0 0.00 0.00 0.00 39 1009.5
20260504202926 75 200 1.0 3.0 0.00 0.00 0.00 38 1009.5
20260504202423 75 209 1.0 3.0 0.00 0.00 0.00 43 1009.4
20260504201920 75 206 2.0 4.0 0.00 0.00 0.00 42 1009.6
20260504201417 76 242 5.0 7.0 0.00 0.00 0.00 37 1009.5
20260504200915 74 232 2.0 6.0 0.00 0.00 0.00 42 1009.5
20260504200411 74 196 3.0 7.0 0.00 0.00 0.00 38 1009.7
20260504195908 74 259 1.0 3.0 0.00 0.00 0.00 43 1009.8
20260504195404 74 219 3.0 4.0 0.00 0.00 0.00 39 1009.7
20260504194900 74 251 4.0 6.0 0.00 0.00 0.00 40 1010.1
20260504194356 74 192 3.0 7.0 0.00 0.00 0.00 39 1010.1
20260504193852 74 225 4.0 6.0 0.00 0.00 0.00 39 1010.0
20260504193350 74 173 2.0 4.0 0.00 0.00 0.00 39 1010.2
20260504192849 74 200 2.0 6.0 0.00 0.00 0.00 39 1010.2
20260504192346 74 182 5.0 9.0 0.00 0.00 0.00 39 1010.4
20260504191844 74 258 5.0 8.0 0.00 0.00 0.00 37 1010.4
20260504191342 75 173 4.0 7.0 0.00 0.00 0.00 39 1010.5
20260504190837 76 179 3.0 7.0 0.00 0.00 0.00 40 1010.6
20260504190333 76 158 2.0 7.0 0.00 0.00 0.00 37 1010.6
20260504185830 75 213 4.0 10.0 0.00 0.00 0.00 42 1010.9
20260504185327 74 201 4.0 7.0 0.00 0.00 0.00 38 1010.9
20260504184823 75 158 4.0 9.0 0.00 0.00 0.00 39 1010.8
20260504184319 74 171 6.0 9.0 0.00 0.00 0.00 36 1010.8
20260504183815 74 218 6.0 9.0 0.00 0.00 0.00 36 1011.2
20260504183312 73 301 4.0 10.0 0.00 0.00 0.00 47 1011.0
20260504182810 73 197 9.0 13.0 0.00 0.00 0.00 37 1011.0
20260504182307 73 202 5.0 8.0 0.00 0.00 0.00 38 1011.0
20260504181804 73 177 3.0 11.0 0.00 0.00 0.00 37 1011.2
20260504181301 73 342 3.0 7.0 0.00 0.00 0.00 40 1011.4
20260504180801 74 310 4.0 9.0 0.00 0.00 0.00 41 1011.2
20260504180259 75 302 9.0 11.0 0.00 0.00 0.00 38 1011.3
20260504175756 75 250 4.0 10.0 0.00 0.00 0.00 37 1011.2
20260504175253 74 308 4.0 6.0 0.00 0.00 0.00 39 1011.2
20260504174751 74 212 4.0 8.0 0.00 0.00 0.00 38 1011.1
20260504174248 74 218 4.0 10.0 0.00 0.00 0.00 36 1011.3
20260504173745 73 203 2.0 7.0 0.00 0.00 0.00 43 1011.7
20260504173242 72 181 4.0 7.0 0.00 0.00 0.00 36 1011.5
20260504172738 72 192 4.0 8.0 0.00 0.00 0.00 40 1011.8
20260504172235 72 141 2.0 9.0 0.00 0.00 0.00 38 1011.7
20260504171731 74 235 9.0 11.0 0.00 0.00 0.00 36 1011.8
20260504171228 73 0 0.0 2.0 0.00 0.00 0.00 36 1011.8
20260504170725 72 185 2.0 9.0 0.00 0.00 0.00 38 1011.8
20260504170223 72 261 4.0 7.0 0.00 0.00 0.00 39 1012.0
20260504160141 68 186 3.0 8.0 0.00 0.00 0.00 38 1013.2
20260504151108 67 218 2.0 8.0 0.00 0.00 0.00 39 1013.5
20260504150606 67 263 4.0 7.0 0.00 0.00 0.00 39 1013.6
20260504141032 65 264 4.0 8.0 0.00 0.00 0.00 40 1013.9
20260504140528 64 219 5.0 8.0 0.00 0.00 0.00 41 1014.0
20260504130452 58 203 2.0 3.0 0.00 0.00 0.00 56 1014.7
20260504110339 42 257 1.0 2.0 0.00 0.00 0.00 84 1015.2
20260504100257 43 302 0.0 0.0 0.00 0.00 0.00 83 1015.6